| time (UTC) | temp C | wind direction | speed KPH | gust KPH | rain 1hr cm | rain 24hr cm | rain mn cm | humidity % | barometer mb |
| 20260504194606 | 16 | 207 | 14.5 | 0.0 | 0.00 | 0.00 | 0.00 | 60 | 1004.4 |
| 20260504194517 | 17 | 126 | 3.2 | 16.1 | 0.00 | 0.00 | 0.00 | 57 | 1009.6 |
| 20260504193109 | 16 | 213 | 14.5 | 0.0 | 0.00 | 0.00 | 0.00 | 60 | 1004.4 |
| 20260504193016 | 17 | 200 | 6.4 | 14.5 | 0.00 | 0.00 | 0.00 | 56 | 1009.7 |
| 20260504191604 | 16 | 213 | 14.5 | 0.0 | 0.00 | 0.00 | 0.00 | 58 | 1004.7 |
| 20260504191527 | 18 | 183 | 6.4 | 20.9 | 0.00 | 0.00 | 0.00 | 53 | 1009.7 |
| 20260504190115 | 17 | 212 | 14.5 | 0.0 | 0.00 | 0.00 | 0.00 | 59 | 1004.7 |
| 20260504190014 | 18 | 171 | 6.4 | 20.9 | 0.00 | 0.00 | 0.00 | 52 | 1009.8 |
| 20260504184625 | 16 | 180 | 16.1 | 0.0 | 0.00 | 0.00 | 0.00 | 58 | 1004.9 |
| 20260504184515 | 18 | 174 | 1.6 | 17.7 | 0.00 | 0.00 | 0.00 | 52 | 1009.9 |
| 20260504183054 | 16 | 219 | 12.9 | 0.0 | 0.00 | 0.00 | 0.00 | 60 | 1005.1 |
| 20260504183027 | 18 | 178 | 1.6 | 16.1 | 0.00 | 0.00 | 0.00 | 54 | 1010.2 |
| 20260504181553 | 16 | 184 | 14.5 | 0.0 | 0.00 | 0.00 | 0.00 | 60 | 1005.3 |
| 20260504181518 | 19 | 200 | 9.7 | 19.3 | 0.00 | 0.00 | 0.00 | 49 | 1010.4 |
| 20260504180055 | 16 | 186 | 12.9 | 0.0 | 0.00 | 0.00 | 0.00 | 60 | 1005.5 |
| 20260504180009 | 19 | 156 | 1.6 | 16.1 | 0.00 | 0.00 | 0.00 | 48 | 1010.5 |
| 20260504174554 | 16 | 232 | 17.7 | 0.0 | 0.00 | 0.00 | 0.00 | 56 | 1005.6 |
| 20260504174508 | 19 | 195 | 1.6 | 19.3 | 0.00 | 0.00 | 0.00 | 50 | 1010.7 |
| 20260504173050 | 16 | 227 | 17.7 | 0.0 | 0.00 | 0.00 | 0.00 | 58 | 1005.6 |
| 20260504173019 | 16 | 212 | 17.7 | 0.0 | 0.00 | 0.00 | 0.00 | 56 | 1005.6 |
| 20260504173006 | 18 | 190 | 1.6 | 17.7 | 0.00 | 0.00 | 0.00 | 50 | 1010.8 |
| 20260504171550 | 15 | 225 | 16.1 | 0.0 | 0.00 | 0.00 | 0.00 | 61 | 1005.8 |
| 20260504171506 | 18 | 182 | 3.2 | 20.9 | 0.00 | 0.00 | 0.00 | 51 | 1010.8 |
| 20260504081550 | 1 | 196 | 0.0 | 0.0 | 0.00 | 0.00 | 0.00 | 83 | 1012.2 |
| 20260504081516 | 3 | 331 | 0.0 | 0.0 | 0.00 | 0.00 | 0.00 | 92 | 1006.9 |
| 20260504050001 | 5 | 331 | 1.6 | 0.0 | 0.00 | 0.00 | 0.00 | 82 | 1006.4 |
| 20260504044600 | 5 | 331 | 0.0 | 0.0 | 0.00 | 0.00 | 0.00 | 80 | 1006.4 |
| 20260504044540 | 3 | 196 | 0.0 | 0.0 | 0.00 | 0.00 | 0.00 | 76 | 1011.8 |
| 20260504043101 | 5 | 331 | 0.0 | 0.0 | 0.00 | 0.00 | 0.00 | 78 | 1006.4 |
| 20260504043031 | 3 | 196 | 0.0 | 0.0 | 0.00 | 0.00 | 0.00 | 76 | 1011.9 |
| 20260504041556 | 5 | 331 | 0.0 | 0.0 | 0.00 | 0.00 | 0.00 | 76 | 1006.3 |
| 20260504041528 | 4 | 196 | 0.0 | 0.0 | 0.00 | 0.00 | 0.00 | 75 | 1011.8 |
| 20260504040054 | 6 | 331 | 0.0 | 0.0 | 0.00 | 0.00 | 0.00 | 75 | 1006.2 |
| 20260504040027 | 4 | 196 | 0.0 | 0.0 | 0.00 | 0.00 | 0.00 | 75 | 1011.6 |
| 20260504034553 | 6 | 331 | 0.0 | 0.0 | 0.00 | 0.00 | 0.00 | 75 | 1006.1 |
| 20260504034539 | 4 | 196 | 0.0 | 1.6 | 0.00 | 0.00 | 0.00 | 75 | 1011.5 |
| 20260504033101 | 6 | 279 | 0.0 | 0.0 | 0.00 | 0.00 | 0.00 | 75 | 1006.0 |
| 20260504033024 | 4 | 196 | 0.0 | 0.0 | 0.00 | 0.00 | 0.00 | 72 | 1011.4 |
| 20260504031600 | 6 | 279 | 0.0 | 0.0 | 0.00 | 0.00 | 0.00 | 73 | 1005.9 |
| 20260504031523 | 5 | 196 | 0.0 | 0.0 | 0.00 | 0.00 | 0.00 | 71 | 1011.4 |
| 20260504030051 | 7 | 279 | 0.0 | 0.0 | 0.00 | 0.00 | 0.00 | 70 | 1005.9 |
| 20260504030038 | 5 | 196 | 0.0 | 0.0 | 0.00 | 0.00 | 0.00 | 70 | 1011.4 |
| 20260504024619 | 7 | 279 | 0.0 | 0.0 | 0.00 | 0.00 | 0.00 | 70 | 1006.0 |
| 20260504024523 | 5 | 196 | 0.0 | 0.0 | 0.00 | 0.00 | 0.00 | 68 | 1011.3 |
| 20260504023050 | 8 | 279 | 0.0 | 0.0 | 0.00 | 0.00 | 0.00 | 68 | 1005.9 |
| 20260504023025 | 5 | 196 | 0.0 | 0.0 | 0.00 | 0.00 | 0.00 | 67 | 1011.4 |
| 20260504021553 | 8 | 279 | 0.0 | 0.0 | 0.00 | 0.00 | 0.00 | 66 | 1005.9 |
| 20260504021522 | 6 | 196 | 0.0 | 0.0 | 0.00 | 0.00 | 0.00 | 66 | 1011.4 |
| 20260504020051 | 8 | 279 | 0.0 | 0.0 | 0.00 | 0.00 | 0.00 | 63 | 1005.9 |
| 20260504020020 | 6 | 196 | 0.0 | 0.0 | 0.00 | 0.00 | 0.00 | 66 | 1011.3 |
| 20260504014548 | 9 | 279 | 0.0 | 0.0 | 0.00 | 0.00 | 0.00 | 63 | 1005.7 |
| 20260504014533 | 6 | 196 | 0.0 | 0.0 | 0.00 | 0.00 | 0.00 | 64 | 1011.2 |
| 20260504013101 | 10 | 279 | 0.0 | 0.0 | 0.00 | 0.00 | 0.00 | 60 | 1005.4 |
| 20260504013019 | 7 | 196 | 0.0 | 0.0 | 0.00 | 0.00 | 0.00 | 65 | 1011.0 |
| 20260504011547 | 11 | 279 | 0.0 | 0.0 | 0.00 | 0.00 | 0.00 | 57 | 1005.3 |
| 20260504011518 | 7 | 196 | 0.0 | 0.0 | 0.00 | 0.00 | 0.00 | 63 | 1010.8 |
| 20260504010046 | 11 | 279 | 0.0 | 0.0 | 0.00 | 0.00 | 0.00 | 53 | 1005.0 |
| 20260504010019 | 8 | 196 | 0.0 | 0.0 | 0.00 | 0.00 | 0.00 | 63 | 1010.6 |
| 20260504004559 | 11 | 279 | 0.0 | 0.0 | 0.00 | 0.00 | 0.00 | 45 | 1004.8 |
| 20260504004515 | 8 | 196 | 0.0 | 0.0 | 0.00 | 0.00 | 0.00 | 61 | 1010.4 |
| 20260504003046 | 11 | 279 | 0.0 | 0.0 | 0.00 | 0.00 | 0.00 | 52 | 1004.7 |
| 20260504003025 | 9 | 196 | 0.0 | 0.0 | 0.00 | 0.00 | 0.00 | 58 | 1010.3 |
| 20260504001616 | 12 | 279 | 0.0 | 0.0 | 0.00 | 0.00 | 0.00 | 50 | 1004.3 |
| 20260504001514 | 10 | 196 | 0.0 | 0.0 | 0.00 | 0.00 | 0.00 | 54 | 1010.1 |
| 20260504000044 | 12 | 279 | 1.6 | 0.0 | 0.00 | 0.00 | 0.00 | 43 | 1004.3 |
| 20260504000013 | 10 | 196 | 0.0 | 0.0 | 0.00 | 0.00 | 0.00 | 45 | 1009.8 |
| 20260503234545 | 12 | 281 | 6.4 | 0.0 | 0.00 | 0.00 | 0.00 | 38 | 1004.1 |
| 20260503234529 | 11 | 196 | 0.0 | 0.0 | 0.00 | 0.00 | 0.00 | 42 | 1009.7 |
| 20260503233042 | 13 | 279 | 8.0 | 0.0 | 0.00 | 0.00 | 0.00 | 38 | 1003.9 |
| 20260503233013 | 11 | 196 | 0.0 | 1.6 | 0.00 | 0.00 | 0.00 | 42 | 1009.5 |
| 20260503231550 | 13 | 302 | 8.0 | 0.0 | 0.00 | 0.00 | 0.00 | 40 | 1003.9 |
| 20260503231514 | 11 | 196 | 0.0 | 3.2 | 0.00 | 0.00 | 0.00 | 43 | 1009.4 |
| 20260503230041 | 13 | 305 | 11.3 | 0.0 | 0.00 | 0.00 | 0.00 | 37 | 1003.8 |
| 20260503230014 | 11 | 325 | 0.0 | 11.3 | 0.00 | 0.00 | 0.00 | 43 | 1009.3 |
| 20260503224542 | 13 | 294 | 11.3 | 0.0 | 0.00 | 0.00 | 0.00 | 38 | 1003.8 |
| 20260503224512 | 12 | 307 | 3.2 | 16.1 | 0.00 | 0.00 | 0.00 | 42 | 1009.3 |
| 20260503223041 | 13 | 268 | 9.7 | 0.0 | 0.00 | 0.00 | 0.00 | 38 | 1003.7 |
| 20260503223016 | 12 | 319 | 0.0 | 9.7 | 0.00 | 0.00 | 0.00 | 42 | 1009.2 |
| 20260503221540 | 13 | 305 | 11.3 | 0.0 | 0.00 | 0.00 | 0.00 | 39 | 1003.7 |
| 20260503221514 | 12 | 329 | 0.0 | 11.3 | 0.00 | 0.00 | 0.00 | 44 | 1009.1 |
| 20260503220041 | 13 | 302 | 14.5 | 0.0 | 0.00 | 0.00 | 0.00 | 38 | 1003.7 |
| 20260503220015 | 12 | 318 | 3.2 | 16.1 | 0.00 | 0.00 | 0.00 | 41 | 1009.2 |
| 20260503214538 | 13 | 309 | 17.7 | 0.0 | 0.00 | 0.00 | 0.00 | 39 | 1003.7 |
| 20260503214515 | 12 | 321 | 0.0 | 17.7 | 0.00 | 0.00 | 0.00 | 42 | 1009.0 |
| 20260503213043 | 13 | 330 | 19.3 | 0.0 | 0.00 | 0.00 | 0.00 | 38 | 1003.6 |
| 20260503213011 | 12 | 340 | 1.6 | 11.3 | 0.00 | 0.00 | 0.00 | 41 | 1009.1 |
| 20260503211541 | 12 | 281 | 22.5 | 0.0 | 0.00 | 0.00 | 0.00 | 39 | 1003.7 |
| 20260503211511 | 12 | 281 | 0.0 | 8.0 | 0.00 | 0.00 | 0.00 | 44 | 1009.0 |
| 20260503210039 | 12 | 309 | 19.3 | 0.0 | 0.00 | 0.00 | 0.00 | 40 | 1003.5 |
| 20260503210011 | 12 | 307 | 0.0 | 8.0 | 0.00 | 0.00 | 0.00 | 42 | 1009.1 |
| 20260503204539 | 12 | 310 | 22.5 | 0.0 | 0.00 | 0.00 | 0.00 | 41 | 1003.4 |
| 20260503204510 | 12 | 338 | 3.2 | 12.9 | 0.00 | 0.00 | 0.00 | 40 | 1008.9 |
| 20260503203019 | 13 | 309 | 1.6 | 12.9 | 0.00 | 0.00 | 0.00 | 43 | 1008.9 |
| 20260503201516 | 12 | 324 | 24.1 | 0.0 | 0.00 | 0.00 | 0.00 | 40 | 1003.6 |
| 20260503201512 | 13 | 267 | 3.2 | 11.3 | 0.00 | 0.00 | 0.00 | 39 | 1008.9 |
| 20260503200012 | 13 | 284 | 3.2 | 11.3 | 0.00 | 0.00 | 0.00 | 43 | 1008.9 |
| 20260503200005 | 12 | 324 | 22.5 | 0.0 | 0.00 | 0.00 | 0.00 | 40 | 1003.6 |